TimeAKDT,TemperatureF,Dew PointF,Humidity,Sea Level PressureIn,VisibilityMPH,Wind Direction,Wind SpeedMPH,Gust SpeedMPH,PrecipitationIn,Events,Conditions,WindDirDegrees,DateUTC
12:53 AM,69.1,45.0,42,29.60,10.0,North,9.2,-,N/A,,Mostly Cloudy,360,2013-06-24 08:53:00
1:53 AM,68.0,45.0,43,29.60,10.0,North,9.2,-,N/A,,Mostly Cloudy,360,2013-06-24 09:53:00
2:53 AM,66.9,44.1,44,29.61,10.0,North,10.4,-,N/A,,Mostly Cloudy,360,2013-06-24 10:53:00
3:53 AM,66.9,44.1,44,29.61,10.0,North,10.4,-,N/A,,Mostly Cloudy,350,2013-06-24 11:53:00
4:53 AM,66.9,44.1,44,29.62,10.0,North,9.2,-,N/A,,Mostly Cloudy,360,2013-06-24 12:53:00
5:53 AM,66.9,45.0,45,29.63,10.0,North,6.9,-,N/A,,Mostly Cloudy,10,2013-06-24 13:53:00
6:53 AM,66.9,48.0,51,29.64,10.0,NE,8.1,-,N/A,,Mostly Cloudy,50,2013-06-24 14:53:00
7:53 AM,70.0,48.9,47,29.64,10.0,NNE,5.8,-,N/A,,Mostly Cloudy,20,2013-06-24 15:53:00
8:53 AM,73.0,48.0,41,29.64,10.0,NNE,4.6,-,N/A,,Mostly Cloudy,30,2013-06-24 16:53:00
9:53 AM,75.9,48.0,37,29.64,10.0,East,5.8,-,N/A,,Scattered Clouds,90,2013-06-24 17:53:00
10:53 AM,78.1,48.0,35,29.63,10.0,SSE,5.8,-,N/A,,Scattered Clouds,150,2013-06-24 18:53:00
11:53 AM,80.1,46.0,30,29.63,10.0,SSE,5.8,-,N/A,,Mostly Cloudy,160,2013-06-24 19:53:00
12:53 PM,82.9,46.0,27,29.61,10.0,SSE,8.1,-,N/A,,Mostly Cloudy,160,2013-06-24 20:53:00
1:53 PM,82.9,44.1,25,29.61,10.0,Variable,3.5,-,N/A,,Mostly Cloudy,0,2013-06-24 21:53:00
2:53 PM,87.1,45.0,23,29.60,10.0,Variable,5.8,-,N/A,,Mostly Cloudy,0,2013-06-24 22:53:00
3:53 PM,86.0,41.0,20,29.59,10.0,East,9.2,-,N/A,,Mostly Cloudy,90,2013-06-24 23:53:00
4:53 PM,87.1,41.0,20,29.58,10.0,East,8.1,-,N/A,,Mostly Cloudy,80,2013-06-25 00:53:00
5:53 PM,88.0,43.0,21,29.57,10.0,East,6.9,-,N/A,,Mostly Cloudy,90,2013-06-25 01:53:00
6:53 PM,86.0,42.1,21,29.57,10.0,East,8.1,-,N/A,,Mostly Cloudy,80,2013-06-25 02:53:00
7:53 PM,84.0,44.1,25,29.57,10.0,East,8.1,-,N/A,,Mostly Cloudy,100,2013-06-25 03:53:00
8:53 PM,84.9,45.0,25,29.57,10.0,East,4.6,-,N/A,,Mostly Cloudy,90,2013-06-25 04:53:00
9:53 PM,79.0,50.0,36,29.58,10.0,ENE,5.8,-,N/A,,Mostly Cloudy,70,2013-06-25 05:53:00
10:53 PM,75.0,48.9,40,29.60,10.0,NNE,8.1,-,N/A,,Scattered Clouds,30,2013-06-25 06:53:00
11:53 PM,72.0,50.0,46,29.60,10.0,NNE,6.9,-,N/A,,Scattered Clouds,20,2013-06-25 07:53:00